[[{"header":{"parameterUnit":"m.s-1","parameterCategory":1,"la1":30.2992,"la2":30.254,"lo1":-89.0895,"lo2":-89.0443,"dy":0.0025,"dx":0.0025,"nx":19,"ny":19,"refTime":"2026-05-03T09:00:00:Z","depth":0,"parameterNumber":2,"parameterNumberName":"U-component_of_WINDS"},"data":[0,0,0,-0.4237,-0.4241,-0.4413,-0.4414,-0.4635,-0.4637,0,0,0,0,0,0,0,0,0,0,0,-0.4185,-0.4186,-0.4237,-0.4241,-0.4413,-0.4414,-0.4635,-0.4637,0,0,0,0,0,0,0,0,0,0,0,-0.4184,-0.4186,-0.4188,-0.4242,-0.4413,-0.4414,-0.4634,-0.4505,0,0,0,0,0,0,0,0,0,0,-0.4338,-0.4287,-0.4185,-0.4188,-0.4243,-0.4413,-0.4414,-0.4499,-0.4513,-0.4557,0,-0.4593,0,-0.4618,-0.4652,-0.4652,0,0,0,-0.4244,-0.4275,-0.4322,-0.4188,-0.4245,-0.4413,-0.4336,-0.4507,-0.4523,-0.4576,-0.4596,-0.4605,-0.4622,-0.4653,-0.4654,-0.4895,-0.4896,0,0,-0.4234,-0.4216,-0.4311,-0.4333,-0.4303,-0.4331,-0.4342,-0.4516,-0.4539,-0.4597,-0.461,-0.4626,-0.4655,-0.4656,-0.4894,-0.4895,0,0,0,-0.4205,-0.4209,-0.4252,-0.4324,-0.4354,-0.4336,-0.4348,-0.4531,-0.4546,-0.4612,-0.4628,-0.4656,-0.4658,-0.4893,-0.4895,-0.4928,0,0,0,-0.42,-0.4192,-0.4248,-0.4238,-0.4351,-0.4444,-0.4359,-0.4534,-0.4555,-0.4627,-0.4656,-0.4661,-0.4892,-0.4894,-0.4925,-0.4949,0,0,0,-0.4174,-0.4189,-0.4213,-0.4237,-0.431,-0.4442,-0.4467,-0.4539,-0.4564,-0.4653,-0.4661,-0.4891,-0.4894,-0.4922,-0.4944,-0.5008,0,0,0,-0.4143,-0.4241,-0.4213,-0.4329,-0.4308,-0.4459,-0.4466,-0.4581,-0.466,-0.4657,-0.4892,-0.4894,-0.4921,-0.4941,-0.5005,-0.5061,-0.5081,0,0,-0.4257,-0.4254,-0.4324,-0.4304,-0.4455,-0.4435,-0.4592,-0.4683,-0.471,-0.4832,-0.4839,-0.4926,-0.4943,-0.5007,-0.5198,-0.5215,0,0,0,-0.4354,-0.4404,-0.4448,-0.4522,-0.4592,-0.4655,-0.4723,-0.4757,-0.4862,-0.4768,-0.4965,-0.4976,-0.5015,-0.5043,-0.5057,-0.5092,-0.4905,-0.4905,-0.4905,-0.4492,-0.4518,-0.4636,-0.4683,-0.4754,-0.4822,-0.4883,-0.4941,-0.4948,-0.4994,-0.5032,-0.5144,-0.5176,-0.5187,-0.5223,-0.5061,-0.5061,-0.5061,-0.5061,-0.4665,-0.4742,-0.4745,-0.4861,-0.4889,-0.4987,-0.5057,-0.5058,-0.5156,-0.5118,-0.5153,-0.5113,-0.5204,-0.5237,-0.5064,-0.5063,-0.5063,-0.5063,-0.5063,-0.4761,-0.4803,-0.4839,-0.4948,-0.5029,-0.5072,-0.5165,-0.5187,-0.5208,-0.5242,-0.5286,-0.5286,-0.5291,-0.5261,-0.5261,-0.5261,-0.5262,-0.5262,-0.5262,-0.4848,-0.4889,-0.4963,-0.5044,-0.5094,-0.5163,-0.5231,-0.5282,-0.5343,-0.5352,-0.5353,-0.5357,-0.5206,-0.517,-0.5269,-0.5268,-0.5267,-0.5266,-0.5266,-0.502,-0.4984,-0.5099,-0.5149,-0.5246,-0.5326,-0.535,-0.5451,-0.5496,-0.5541,-0.5536,-0.542,-0.542,-0.541,-0.538,-0.5528,-0.5528,-0.5528,-0.5528,-0.5105,-0.5105,-0.5228,-0.5306,-0.5384,-0.5417,-0.555,-0.5603,-0.5654,-0.5683,-0.5664,-0.5625,-0.5613,-0.5621,-0.5605,-0.5579,-0.5774,-0.5774,-0.5774,-0.5213,-0.5222,-0.533,-0.5375,-0.5452,-0.5519,-0.5644,-0.5736,-0.5785,-0.5784,-0.5708,-0.5698,-0.5635,-0.5613,-0.5614,-0.559,-0.5541,0,0]},{"header":{"parameterUnit":"m.s-1","parameterCategory":1,"la1":30.2992,"la2":30.254,"lo1":-89.0895,"lo2":-89.0443,"dy":0.0025,"dx":0.0025,"nx":19,"ny":19,"refTime":"2026-05-03T09:00:00:Z","depth":0,"parameterNumber":3,"parameterNumberName":"V-component_of_WINDS"},"data":[0,0,0,-5.7276,-5.7282,-5.7551,-5.7552,-5.7917,-5.792,0,0,0,0,0,0,0,0,0,0,0,-5.7211,-5.7214,-5.7276,-5.7283,-5.7551,-5.7552,-5.7916,-5.792,0,0,0,0,0,0,0,0,0,0,0,-5.7209,-5.7213,-5.7217,-5.7284,-5.7551,-5.7552,-5.7915,-5.7705,0,0,0,0,0,0,0,0,0,0,-5.744,-5.7394,-5.7212,-5.7217,-5.7286,-5.7551,-5.7553,-5.7694,-5.7718,-5.7804,0,-5.7886,0,-5.7909,-5.7946,-5.7948,0,0,0,-5.7272,-5.7375,-5.7434,-5.7217,-5.7288,-5.7551,-5.7427,-5.7707,-5.7734,-5.7836,-5.7891,-5.7904,-5.7915,-5.7949,-5.7951,-5.8489,-5.8492,0,0,-5.7257,-5.7267,-5.7416,-5.7452,-5.7414,-5.7419,-5.7436,-5.7723,-5.7784,-5.7893,-5.7912,-5.7921,-5.7951,-5.7954,-5.8486,-5.849,0,0,0,-5.7222,-5.7257,-5.7309,-5.7438,-5.7485,-5.7427,-5.7446,-5.7771,-5.7787,-5.7916,-5.7926,-5.7953,-5.7958,-5.8483,-5.8487,-5.8649,0,0,0,-5.7213,-5.7236,-5.7303,-5.7312,-5.748,-5.7632,-5.7488,-5.7767,-5.7799,-5.7924,-5.7954,-5.7962,-5.8479,-5.8485,-5.8637,-5.8724,0,0,0,-5.7189,-5.7233,-5.7277,-5.7311,-5.7427,-5.7627,-5.7659,-5.7774,-5.7806,-5.7948,-5.7963,-5.8477,-5.8484,-5.8627,-5.8707,-5.8871,0,0,0,-5.7165,-5.7415,-5.728,-5.7562,-5.7425,-5.7724,-5.7657,-5.7879,-5.8019,-5.7955,-5.848,-5.8487,-5.8623,-5.8696,-5.8859,-5.9012,-5.9076,0,0,-5.7486,-5.7454,-5.7619,-5.7506,-5.7832,-5.7682,-5.8031,-5.815,-5.8153,-5.8376,-5.8389,-5.8641,-5.8706,-5.8868,-5.9424,-5.9475,0,0,0,-5.7724,-5.7844,-5.7927,-5.8063,-5.816,-5.825,-5.8315,-5.8358,-5.8548,-5.827,-5.8742,-5.878,-5.8875,-5.8948,-5.8991,-5.9073,-5.852,-5.8519,-5.8518,-5.8194,-5.8185,-5.8459,-5.8483,-5.8614,-5.8678,-5.8784,-5.8853,-5.8806,-5.8917,-5.8985,-5.9323,-5.9409,-5.9441,-5.9526,-5.9061,-5.9062,-5.9063,-5.9063,-5.8665,-5.8834,-5.8764,-5.9005,-5.8994,-5.9195,-5.9265,-5.9224,-5.941,-5.9271,-5.9355,-5.9207,-5.9497,-5.9571,-5.9075,-5.9073,-5.9072,-5.907,-5.907,-5.8975,-5.9054,-5.9103,-5.9297,-5.9447,-5.9461,-5.9643,-5.9625,-5.961,-5.9692,-5.9762,-5.9759,-5.9757,-5.9726,-5.9727,-5.9728,-5.9729,-5.973,-5.9731,-5.9278,-5.9328,-5.9484,-5.9608,-5.9692,-5.98,-5.9865,-5.9947,-6.0033,-6.0006,-6.0006,-5.9949,-5.9526,-5.9422,-5.9749,-5.9746,-5.9743,-5.9742,-5.974,-5.9765,-5.9652,-5.9894,-5.9979,-6.0122,-6.0272,-6.0246,-6.0414,-6.0479,-6.0569,-6.0493,-6.0182,-6.0148,-6.0113,-6.0028,-6.0492,-6.0492,-6.0492,-6.0492,-6.003,-6.001,-6.0253,-6.039,-6.0521,-6.0521,-6.0794,-6.0846,-6.0881,-6.0921,-6.085,-6.0732,-6.0698,-6.0685,-6.0638,-6.0558,-6.1147,-6.1148,-6.1148,-6.033,-6.0322,-6.0559,-6.0593,-6.0703,-6.0798,-6.1054,-6.1213,-6.1228,-6.1174,-6.0952,-6.0924,-6.0735,-6.0673,-6.0619,-6.0546,-6.0398,0,0]}]]